Kemmerer, WY

12:49 AM MDT on April 25, 2017 (GMT -0600)
Kemmerer Municipal

Weather History for KEMM - February, 2014

Change the Weather History Date:

Monday, February 24, 2014

  Actual Average Record
Temperature  
Mean Temperature 36 °F -  
Max Temperature 41 °F 34 °F 55 °F (1981)
Min Temperature 32 °F 7 °F -19 °F (1960)
Degree Days  
Heating Degree Days 28    
Moisture  
Dew Point 25 °F    
Average Humidity 65    
Maximum Humidity 80    
Minimum Humidity 49    
Precipitation  
Precipitation 0.00 in - - ()
Sea Level Pressure  
Sea Level Pressure 30.07 in    
Wind  
Wind Speed 14 mph (West)    
Max Wind Speed 29 mph    
Max Gust Speed 34 mph    
Visibility 10 miles    
Events      
Averages and records for this station are not official NWS values.
T = Trace of Precipitation, MM = Missing Value Source: NWS Daily Summary

Daily Weather History Graph

Daily Weather History Graph

Search for Another Location

Airport or City:

Trip Planner

Search our weather history database for the weather conditions in past years. The results will help you decide how hot, cold, wet, or windy it might be!

Date:

Astronomy

Feb. 24, 2014 Rise Set
Actual Time 7:04 AM MST 6:06 PM MST
Civil Twilight 6:36 AM MST 6:34 PM MST
Nautical Twilight 6:04 AM MST 7:07 PM MST
Astronomical Twilight 5:32 AM MST 7:39 PM MST
Moon 3:09 AM MST (2/24) 1:08 PM MST (2/24)
Length of Visible Light 11h 58m
Length of Day
11h 01m
Waning Crescent, 27% of the Moon is Illuminated
Feb 24
Waning Crescent
Mar 1
New
Mar 8
First Quarter
Mar 16
Full
Mar 23
Last Quarter

Hourly Weather History & Observations

Time (MST) Temp. Windchill Dew Point Humidity Pressure Visibility Wind Dir Wind Speed Gust Speed Precip Events Conditions
9:15 AM 33.8 °F 21.3 °F 23.0 °F 65% 30.01 in 10.0 mi West 24.2 mph 28.8 mph N/A   Clear
9:30 AM 33.8 °F 20.3 °F 23.0 °F 65% 30.02 in 10.0 mi West 28.8 mph 33.4 mph N/A   Clear
9:55 AM 35.6 °F 23.0 °F 23.0 °F 60% 30.02 in 7.0 mi West 27.6 mph 34.5 mph N/A   Clear
10:15 AM 35.6 °F 23.0 °F 23.0 °F 60% 30.03 in 10.0 mi West 27.6 mph 34.5 mph N/A   Clear
10:35 AM 37.4 °F 26.6 °F 23.0 °F 56% 30.05 in 10.0 mi West 21.9 mph 28.8 mph N/A   Clear
10:55 AM 37.4 °F 27.2 °F 23.0 °F 56% 30.06 in 10.0 mi West 19.6 mph 24.2 mph N/A   Clear
11:15 AM 39.2 °F 31.6 °F 23.0 °F 52% 30.07 in 10.0 mi West 12.7 mph 18.4 mph N/A   Clear
11:35 AM 41.0 °F 33.9 °F 23.0 °F 49% 30.08 in 10.0 mi West 12.7 mph - N/A   Clear
11:55 AM 41.0 °F 33.9 °F 24.8 °F 53% 30.08 in 10.0 mi West 12.7 mph 18.4 mph N/A   Clear
12:15 PM 41.0 °F 33.5 °F 23.0 °F 49% 30.07 in 10.0 mi West 13.8 mph - N/A   Clear
12:35 PM 41.0 °F 33.1 °F 26.6 °F 57% 30.07 in 10.0 mi West 15.0 mph - N/A   Clear
12:55 PM 41.0 °F 33.9 °F 26.6 °F 57% 30.07 in 10.0 mi West 12.7 mph - N/A   Clear
1:15 PM 41.0 °F 34.7 °F 26.6 °F 57% 30.07 in 10.0 mi West 10.4 mph - N/A   Clear
1:35 PM 41.0 °F 33.5 °F 26.6 °F 57% 30.06 in 10.0 mi West 13.8 mph - N/A   Clear
1:55 PM 41.0 °F 33.5 °F 26.6 °F 57% 30.06 in 10.0 mi West 13.8 mph - N/A   Clear
2:15 PM 41.0 °F 32.8 °F 26.6 °F 57% 30.06 in 10.0 mi West 16.1 mph - N/A   Clear
2:35 PM 41.0 °F 33.5 °F 26.6 °F 57% 30.05 in 10.0 mi West 13.8 mph 19.6 mph N/A   Clear
2:55 PM 41.0 °F 35.8 °F 26.6 °F 57% 30.06 in 10.0 mi West 8.1 mph 12.7 mph N/A   Clear
3:15 PM 41.0 °F 34.3 °F 26.6 °F 57% 30.06 in 10.0 mi West 11.5 mph - N/A   Clear
3:35 PM 41.0 °F 34.7 °F 28.4 °F 61% 30.06 in 10.0 mi WNW 10.4 mph - N/A   Clear
3:55 PM 41.0 °F 39.0 °F 28.4 °F 61% 30.06 in 10.0 mi West 3.5 mph - N/A   Clear
4:15 PM 41.0 °F - 28.4 °F 61% 30.07 in 10.0 mi Calm Calm - N/A   Clear
4:35 PM 41.0 °F - 26.6 °F 57% 30.07 in 10.0 mi Calm Calm - N/A   Clear
4:55 PM 37.4 °F - 26.6 °F 65% 30.07 in 10.0 mi Calm Calm - N/A   Clear
5:15 PM 37.4 °F 33.8 °F 26.6 °F 65% 30.07 in 10.0 mi WNW 4.6 mph - N/A   Clear
5:35 PM 35.6 °F 29.9 °F 26.6 °F 70% 30.07 in 10.0 mi WNW 6.9 mph - N/A   Clear
5:55 PM 33.8 °F 27.0 °F 26.6 °F 75% 30.07 in 10.0 mi WNW 8.1 mph - N/A   Clear
6:15 PM 33.8 °F 28.6 °F 26.6 °F 75% 30.08 in 10.0 mi WNW 5.8 mph - N/A   Clear
6:35 PM 32.0 °F 27.5 °F 24.8 °F 75% 30.08 in 10.0 mi West 4.6 mph - N/A   Clear
6:55 PM 32.0 °F 27.5 °F 24.8 °F 75% 30.09 in 10.0 mi West 4.6 mph - N/A   Clear
7:15 PM 32.0 °F 27.5 °F 24.8 °F 75% 30.09 in 10.0 mi West 4.6 mph - N/A   Clear
7:30 PM 32.0 °F 28.7 °F 26.6 °F 80% 30.09 in 10.0 mi WSW 3.5 mph - N/A   Clear
7:55 PM 32.0 °F - 24.8 °F 75% 30.09 in 10.0 mi Calm Calm - N/A   Clear
8:10 PM 32.0 °F - 24.8 °F 75% 30.09 in 10.0 mi Calm Calm - N/A   Clear
8:35 PM 32.0 °F - 23.0 °F 69% 30.09 in 10.0 mi Calm Calm - N/A   Clear
8:50 PM 32.0 °F - 24.8 °F 75% 30.09 in 10.0 mi Calm Calm - N/A   Clear
9:55 PM 32.0 °F 27.5 °F 26.6 °F 80% 30.08 in 10.0 mi SW 4.6 mph - N/A   Clear
10:55 PM 32.0 °F - 24.8 °F 75% 30.07 in 10.0 mi Calm Calm - N/A   Overcast
11:15 PM 32.0 °F - 24.8 °F 75% 30.07 in 10.0 mi Calm Calm - N/A   Overcast
11:35 PM 32.0 °F - 24.8 °F 75% 30.06 in 10.0 mi Calm Calm - N/A   Overcast
11:50 PM 32.0 °F - 24.8 °F 75% 30.06 in 10.0 mi Calm Calm - N/A   Mostly Cloudy